This is the latest recevied weather packets stored in our database for station/object F4IKI-10. If no packets are shown the sender has not sent any weather packets the latest 1 day(s).
| Time | Temp. | Humidity | Pressure | Rain* | Wind** | Luminosity | Snow |
|---|---|---|---|---|---|---|---|
| 1778083159 | 18.89° C | 63% | 1015.9 hPa | - | - | - | - |
| 1778082259 | 17.22° C | 65% | 1016 hPa | - | - | - | - |
| 1778075958 | 18.89° C | 63% | 1016.1 hPa | - | - | - | - |
| 1778075058 | 18.89° C | 63% | 1016 hPa | - | - | - | - |
| 1778074158 | 18.89° C | 63% | 1016 hPa | - | - | - | - |
| 1778073257 | 18.89° C | 63% | 1016 hPa | - | - | - | - |
| 1778072357 | 18.89° C | 62% | 1016 hPa | - | - | - | - |
| 1778071457 | 18.89° C | 62% | 1016 hPa | - | - | - | - |
| 1778066056 | 18.89° C | 61% | 1015.8 hPa | - | - | - | - |
| 1778063355 | 18.33° C | 60% | 1016 hPa | - | - | - | - |
| 1778062456 | 17.78° C | 61% | 1015.9 hPa | - | - | - | - |
| 1778062455 | 17.78° C | 61% | 1015.9 hPa | - | - | - | - |
| 1778061555 | 17.78° C | 61% | 1015.7 hPa | - | - | - | - |
| 1778061555 | 17.78° C | 61% | 1015.7 hPa | - | - | - | - |
| 1778060655 | 17.78° C | 61% | 1015.7 hPa | - | - | - | - |
| 1778059755 | 17.78° C | 61% | 1015.5 hPa | - | - | - | - |
| 1778058855 | 18.33° C | 61% | 1015.3 hPa | - | - | - | - |
| 1778056154 | 18.33° C | 63% | 1015.2 hPa | - | - | - | - |
| 1778054354 | 18.89° C | 62% | 1015.2 hPa | - | - | - | - |
| 1778053454 | 18.89° C | 62% | 1015.2 hPa | - | - | - | - |
| 1778052554 | 18.89° C | 62% | 1015.1 hPa | - | - | - | - |
| 1778051654 | 18.89° C | 62% | 1015.2 hPa | - | - | - | - |
| 1778050754 | 18.89° C | 62% | 1015 hPa | - | - | - | - |
| 1778047152 | 18.89° C | 62% | 1015 hPa | - | - | - | - |
| 1778046252 | 18.89° C | 61% | 1014.9 hPa | - | - | - | - |
* Rain since midnight (hover to see other rain measurements)
** Current wind speed in m/s (hover to see current wind gust speed)